Location: Contre
(49.7477°N, 2.0963°E)
Time: 12:28:05
(UTC+00:00)

Meteor 2-12 Rocket - Pass Details

Date: 16 November 2025
Orbit: 935 x 957 km, 82.5° (Epoch: 05 December)

Event Time Altitude Azimuth Distance (km) Brightness Sun altitude
Rises 05:41:03 0° 154° (SSE) 3,626 8.1 -13.5°
Reaches altitude 10° 05:43:50 10° 144° (SE) 2,684 7.6 -13.1°
Maximum altitude 05:49:03 30° 86° (E) 1,634 6.5 -12.3°
Drops below altitude 10° 05:54:18 10° 27° (NNE) 2,692 7.0 -11.4°
Sets 05:57:04 0° 18° (NNE) 3,639 7.5 -11.0°
